| time (UTC) | temp C | wind direction | speed KPH | gust KPH | rain 1hr cm | rain 24hr cm | rain mn cm | humidity % | barometer mb |
| 20260507081530 | 12 | 48 | 3.2 | 11.3 | 0.00 | 0.41 | 0.30 | 83 | 1010.4 |
| 20260507080021 | 13 | 346 | 0.0 | 4.8 | 0.00 | 0.41 | 0.30 | 84 | 1010.3 |
| 20260507074516 | 13 | 352 | 1.6 | 9.7 | 0.00 | 0.41 | 0.30 | 84 | 1010.0 |
| 20260507073015 | 13 | 7 | 3.2 | 8.0 | 0.00 | 0.41 | 0.30 | 83 | 1009.9 |
| 20260507071514 | 13 | 304 | 1.6 | 9.7 | 0.00 | 0.41 | 0.30 | 83 | 1009.8 |
| 20260507070013 | 13 | 65 | 3.2 | 14.5 | 0.00 | 0.41 | 0.30 | 82 | 1009.8 |
| 20260507064508 | 13 | 1 | 3.2 | 17.7 | 0.03 | 0.41 | 0.30 | 82 | 1009.2 |
| 20260507063006 | 14 | 347 | 1.6 | 9.7 | 0.10 | 0.41 | 0.30 | 83 | 1008.6 |
| 20260507061506 | 14 | 4 | 1.6 | 4.8 | 0.23 | 0.41 | 0.30 | 80 | 1008.7 |
| 20260507060003 | 15 | 16 | 0.0 | 6.4 | 0.30 | 0.41 | 0.30 | 78 | 1009.4 |
| 20260507054609 | 15 | 27 | 0.0 | 3.2 | 0.28 | 0.38 | 0.28 | 75 | 1009.7 |
| 20260507053056 | 15 | 4 | 3.2 | 6.4 | 0.20 | 0.30 | 0.20 | 72 | 1008.9 |
| 20260507051554 | 16 | 213 | 0.0 | 8.0 | 0.08 | 0.18 | 0.08 | 68 | 1009.7 |
| 20260507050047 | 16 | 10 | 1.6 | 9.7 | 0.00 | 0.10 | 0.00 | 66 | 1009.7 |
| 20260507044544 | 17 | 11 | 3.2 | 12.9 | 0.00 | 0.10 | 0.00 | 66 | 1009.6 |
| 20260507043042 | 18 | 309 | 0.0 | 3.2 | 0.00 | 0.10 | 0.00 | 71 | 1009.5 |
| 20260507041550 | 17 | 314 | 1.6 | 4.8 | 0.00 | 0.10 | 0.00 | 74 | 1009.1 |
| 20260507040034 | 17 | 46 | 0.0 | 3.2 | 0.00 | 0.10 | 0.00 | 78 | 1009.0 |
| 20260507034536 | 17 | 276 | 0.0 | 3.2 | 0.00 | 0.10 | 0.10 | 78 | 1008.8 |
| 20260507033035 | 17 | 286 | 0.0 | 0.0 | 0.00 | 0.10 | 0.10 | 77 | 1008.6 |
| 20260507031533 | 17 | 286 | 0.0 | 0.0 | 0.00 | 0.10 | 0.10 | 76 | 1008.5 |
| 20260507030031 | 17 | 286 | 0.0 | 0.0 | 0.00 | 0.10 | 0.10 | 76 | 1008.4 |
| 20260507024531 | 17 | 286 | 0.0 | 1.6 | 0.00 | 0.10 | 0.10 | 76 | 1008.3 |
| 20260507023031 | 17 | 286 | 0.0 | 1.6 | 0.00 | 0.10 | 0.10 | 75 | 1008.4 |
| 20260507021529 | 17 | 286 | 0.0 | 1.6 | 0.00 | 0.10 | 0.10 | 73 | 1008.6 |
| 20260507020029 | 17 | 286 | 0.0 | 1.6 | 0.00 | 0.10 | 0.10 | 73 | 1008.5 |
| 20260507014546 | 17 | 286 | 0.0 | 0.0 | 0.00 | 0.10 | 0.10 | 71 | 1008.6 |
| 20260507013040 | 17 | 286 | 0.0 | 0.0 | 0.00 | 0.10 | 0.10 | 70 | 1008.6 |
| 20260507011535 | 17 | 286 | 0.0 | 0.0 | 0.00 | 0.10 | 0.10 | 69 | 1009.0 |
| 20260507010032 | 17 | 286 | 0.0 | 0.0 | 0.00 | 0.10 | 0.10 | 68 | 1008.7 |
| 20260507004524 | 18 | 286 | 0.0 | 0.0 | 0.00 | 0.10 | 0.10 | 66 | 1008.2 |
| 20260507003023 | 18 | 286 | 0.0 | 0.0 | 0.00 | 0.10 | 0.10 | 66 | 1008.4 |
| 20260507001523 | 19 | 286 | 0.0 | 0.0 | 0.00 | 0.10 | 0.10 | 65 | 1008.3 |
| 20260507000028 | 20 | 286 | 0.0 | 0.0 | 0.00 | 0.10 | 0.10 | 63 | 1008.1 |
| 20260506234522 | 20 | 286 | 0.0 | 0.0 | 0.00 | 0.10 | 0.10 | 63 | 1008.0 |
| 20260506233023 | 20 | 286 | 0.0 | 0.0 | 0.00 | 0.10 | 0.10 | 62 | 1007.9 |
| 20260506231521 | 20 | 286 | 0.0 | 0.0 | 0.00 | 0.10 | 0.10 | 62 | 1007.9 |
| 20260506230020 | 20 | 287 | 0.0 | 4.8 | 0.00 | 0.10 | 0.10 | 61 | 1007.6 |
| 20260506224522 | 20 | 193 | 1.6 | 6.4 | 0.00 | 0.10 | 0.10 | 60 | 1007.7 |
| 20260506223019 | 20 | 211 | 1.6 | 9.7 | 0.00 | 0.10 | 0.10 | 60 | 1007.7 |
| 20260506221520 | 21 | 208 | 1.6 | 8.0 | 0.00 | 0.10 | 0.10 | 60 | 1007.8 |
| 20260506220018 | 21 | 250 | 1.6 | 6.4 | 0.00 | 0.10 | 0.10 | 60 | 1007.9 |
| 20260506214517 | 21 | 197 | 1.6 | 8.0 | 0.00 | 0.10 | 0.10 | 60 | 1007.7 |
| 20260506213017 | 21 | 226 | 1.6 | 8.0 | 0.00 | 0.10 | 0.10 | 59 | 1007.6 |
| 20260506211516 | 21 | 246 | 3.2 | 11.3 | 0.00 | 0.10 | 0.10 | 59 | 1007.5 |
| 20260506210016 | 21 | 175 | 1.6 | 6.4 | 0.00 | 0.10 | 0.10 | 60 | 1007.3 |
| 20260506204517 | 21 | 226 | 3.2 | 14.5 | 0.00 | 0.10 | 0.10 | 60 | 1007.2 |
| 20260506203014 | 20 | 177 | 4.8 | 9.7 | 0.00 | 0.10 | 0.10 | 60 | 1007.2 |
| 20260506201513 | 20 | 185 | 3.2 | 17.7 | 0.00 | 0.10 | 0.10 | 60 | 1007.1 |
| 20260506200013 | 20 | 247 | 4.8 | 17.7 | 0.00 | 0.10 | 0.10 | 60 | 1007.2 |
| 20260506194512 | 20 | 219 | 4.8 | 11.3 | 0.00 | 0.10 | 0.10 | 61 | 1007.4 |
| 20260506193009 | 20 | 209 | 3.2 | 11.3 | 0.00 | 0.10 | 0.10 | 61 | 1007.7 |
| 20260506191510 | 20 | 215 | 4.8 | 8.0 | 0.00 | 0.10 | 0.10 | 60 | 1007.8 |
| 20260506190007 | 20 | 210 | 4.8 | 11.3 | 0.00 | 0.10 | 0.10 | 59 | 1007.8 |
| 20260506184505 | 20 | 200 | 1.6 | 17.7 | 0.00 | 0.10 | 0.10 | 59 | 1007.8 |
| 20260506183006 | 20 | 206 | 4.8 | 17.7 | 0.00 | 0.10 | 0.10 | 59 | 1008.2 |
| 20260506181503 | 20 | 78 | 4.8 | 16.1 | 0.00 | 0.10 | 0.10 | 59 | 1008.5 |
| 20260506180107 | 20 | 169 | 3.2 | 16.1 | 0.00 | 0.10 | 0.10 | 60 | 1008.7 |
| 20260506174604 | 20 | 221 | 3.2 | 17.7 | 0.00 | 0.10 | 0.10 | 61 | 1008.9 |
| 20260506173123 | 20 | 240 | 4.8 | 11.3 | 0.00 | 0.10 | 0.10 | 62 | 1008.9 |
| 20260506171602 | 19 | 86 | 4.8 | 16.1 | 0.00 | 0.10 | 0.10 | 64 | 1008.8 |
| 20260506170057 | 18 | 246 | 3.2 | 12.9 | 0.00 | 0.10 | 0.10 | 66 | 1008.9 |
| 20260506164555 | 18 | 210 | 3.2 | 12.9 | 0.03 | 0.10 | 0.10 | 67 | 1009.1 |
| 20260506163055 | 18 | 166 | 6.4 | 16.1 | 0.03 | 0.10 | 0.10 | 68 | 1009.3 |
| 20260506161556 | 17 | 195 | 1.6 | 8.0 | 0.05 | 0.10 | 0.10 | 72 | 1009.3 |
| 20260506154547 | 17 | 153 | 4.8 | 17.7 | 0.03 | 0.08 | 0.08 | 68 | 1009.7 |
| 20260506153046 | 17 | 174 | 3.2 | 11.3 | 0.05 | 0.08 | 0.08 | 70 | 1010.1 |
| 20260506151545 | 17 | 218 | 1.6 | 14.5 | 0.03 | 0.05 | 0.05 | 70 | 1010.3 |
| 20260506150043 | 17 | 213 | 0.0 | 11.3 | 0.05 | 0.05 | 0.05 | 69 | 1010.3 |
| 20260506144541 | 17 | 169 | 1.6 | 11.3 | 0.05 | 0.05 | 0.05 | 67 | 1010.5 |
| 20260506143039 | 17 | 217 | 4.8 | 11.3 | 0.03 | 0.03 | 0.03 | 65 | 1010.4 |
| 20260506141537 | 17 | 226 | 4.8 | 11.3 | 0.00 | 0.00 | 0.00 | 63 | 1010.4 |
| 20260506140042 | 18 | 154 | 3.2 | 9.7 | 0.00 | 0.00 | 0.00 | 60 | 1010.5 |
| 20260506134606 | 18 | 235 | 1.6 | 6.4 | 0.00 | 0.00 | 0.00 | 57 | 1010.5 |
| 20260506133034 | 18 | 227 | 4.8 | 16.1 | 0.00 | 0.00 | 0.00 | 56 | 1010.6 |
| 20260506131533 | 18 | 247 | 1.6 | 12.9 | 0.00 | 0.00 | 0.00 | 56 | 1010.3 |
| 20260506130033 | 18 | 183 | 3.2 | 12.9 | 0.00 | 0.00 | 0.00 | 56 | 1010.3 |
| 20260506124532 | 18 | 179 | 1.6 | 11.3 | 0.00 | 0.00 | 0.00 | 56 | 1010.2 |
| 20260506123033 | 18 | 225 | 3.2 | 11.3 | 0.00 | 0.00 | 0.00 | 56 | 1010.3 |
| 20260506121531 | 18 | 212 | 3.2 | 14.5 | 0.00 | 0.00 | 0.00 | 56 | 1010.4 |
| 20260506120030 | 18 | 136 | 3.2 | 14.5 | 0.00 | 0.00 | 0.00 | 56 | 1010.2 |
| 20260506114535 | 18 | 172 | 4.8 | 16.1 | 0.00 | 0.00 | 0.00 | 57 | 1010.2 |
| 20260506113033 | 18 | 205 | 3.2 | 19.3 | 0.00 | 0.00 | 0.00 | 58 | 1010.1 |
| 20260506111528 | 18 | 210 | 3.2 | 14.5 | 0.00 | 0.00 | 0.00 | 59 | 1010.0 |
| 20260506110029 | 18 | 220 | 4.8 | 14.5 | 0.00 | 0.00 | 0.00 | 59 | 1010.0 |
| 20260506104526 | 17 | 210 | 4.8 | 12.9 | 0.00 | 0.00 | 0.00 | 60 | 1010.0 |
| 20260506103028 | 18 | 200 | 4.8 | 16.1 | 0.00 | 0.00 | 0.00 | 60 | 1009.9 |
| 20260506101524 | 17 | 215 | 3.2 | 12.9 | 0.00 | 0.00 | 0.00 | 60 | 1009.8 |
| 20260506100031 | 18 | 225 | 4.8 | 14.5 | 0.00 | 0.00 | 0.00 | 60 | 1009.8 |
| 20260506094519 | 18 | 172 | 3.2 | 12.9 | 0.00 | 0.00 | 0.00 | 59 | 1010.1 |
| 20260506093019 | 18 | 207 | 4.8 | 12.9 | 0.00 | 0.00 | 0.00 | 60 | 1010.0 |
| 20260506091519 | 18 | 209 | 3.2 | 12.9 | 0.00 | 0.00 | 0.00 | 60 | 1009.9 |
| 20260506090017 | 18 | 216 | 4.8 | 16.1 | 0.00 | 0.00 | 0.00 | 59 | 1010.0 |
| 20260506084516 | 18 | 229 | 3.2 | 12.9 | 0.00 | 0.00 | 0.00 | 59 | 1009.9 |
| 20260506083015 | 18 | 236 | 1.6 | 17.7 | 0.00 | 0.00 | 0.00 | 59 | 1010.1 |